Stations météo

réclame
Mon MeteoGroup
Svanberga, Suède (2490): Température de l'air & dewpoint: 09.08.2018 01:00:00 - 15.08.2018 01:00:00 (CEST)Svanberga, Suède (2490): Vitesse du vent & gusts: 09.08.2018 01:00:00 - 15.08.2018 01:00:00 (CEST)Svanberga, Suède (2490): Direction du vent: 09.08.2018 01:00:00 - 15.08.2018 01:00:00 (CEST)Svanberga, Suède (2490): reduced air pressure: 09.08.2018 01:00:00 - 15.08.2018 01:00:00 (CEST)Svanberga, Suède (2490): visibility: 09.08.2018 01:00:00 - 15.08.2018 01:00:00 (CEST)Svanberga, Suède (2490): Quantités de précipitations: 09.08.2018 01:00:00 - 15.08.2018 01:00:00 (CEST)
Date & Time tt [°C] td [°C] ff [km/h] ff [knt] fx [km/h] fx [knt] dd ppp [hPa] vv [km] rr [mm]
15.08.2018 01:00:00 - - - - - - - - - -
15.08.2018 00:00:00 13,9 13,9 0 0 10 5 N 1008,7 12 0,0
14.08.2018 23:00:00 14,4 14,4 5 3 10 6 ESE 1008,6 14 0,0
14.08.2018 22:00:00 14,1 - 0 0 3 2 N 1008,8 13 0,0
14.08.2018 21:00:00 14,3 14,3 0 0 1 1 N 1009,1 10 0,0
14.08.2018 20:00:00 14,5 14,3 0 0 2 1 N 1008,9 21 0,6
14.08.2018 19:00:00 15,3 14,2 0 0 4 2 N 1009,0 17 0,4
14.08.2018 18:00:00 16,9 13,6 3 1 12 7 E 1009,2 37 0,0
14.08.2018 17:00:00 18,2 9,8 5 3 14 8 SE 1009,4 50 0,0
14.08.2018 16:00:00 18,9 8,5 5 3 17 9 SSE 1009,5 50 0,0
14.08.2018 15:00:00 19,8 8,2 9 5 21 11 ESE 1009,8 43 0,0
14.08.2018 14:00:00 19,7 8,4 10 5 19 10 ESE 1009,8 49 0,0
14.08.2018 13:00:00 19,7 8,4 5 3 15 8 E 1009,7 43 0,0
14.08.2018 12:00:00 20,0 9,0 3 1 8 4 ESE 1010,0 44 0,0
14.08.2018 11:00:00 18,7 10,3 2 1 8 4 NNW 1010,1 50 0,0
14.08.2018 10:00:00 19,6 8,3 4 2 8 4 NW 1010,4 43 0,0
14.08.2018 09:00:00 17,6 11,8 2 1 6 3 ESE 1010,3 34 0,0
14.08.2018 08:00:00 15,7 12,8 4 2 7 4 WNW 1010,3 40 0,0
14.08.2018 07:00:00 11,4 11,4 0 0 0 0 N 1010,3 35 0,0
14.08.2018 06:00:00 8,8 8,8 0 0 0 0 N 1010,4 25 0,0
14.08.2018 05:00:00 4,9 4,9 0 0 1 0 N 1010,3 3,0 0,0
14.08.2018 04:00:00 5,0 5,0 0 0 0 0 N 1010,3 6 0,0
14.08.2018 03:00:00 5,3 5,3 0 0 3 1 N 1010,3 2,5 0,0
14.08.2018 02:00:00 5,8 - 0 0 3 1 N 1010,1 4,9 0,0
14.08.2018 01:00:00 6,4 6,4 0 0 3 2 N 1010,0 6 0,0
14.08.2018 00:00:00 7,1 7,1 0 0 3 2 N 1009,9 14 0,0
13.08.2018 23:00:00 9,1 9,1 0 0 5 3 N 1009,7 37 0,0
13.08.2018 22:00:00 9,0 8,7 0 0 4 2 N 1009,7 32 0,0
13.08.2018 21:00:00 10,7 9,8 4 2 7 4 SE 1009,6 47 0,0
13.08.2018 20:00:00 15,9 10,0 6 3 11 6 ESE 1009,4 50 0,0
13.08.2018 19:00:00 16,9 10,0 9 5 16 9 E 1009,1 43 0,0
13.08.2018 18:00:00 18,3 10,6 9 5 16 9 E 1009,0 50 0,0
13.08.2018 17:00:00 21,1 10,0 7 4 16 9 WNW 1008,9 36 0,0
13.08.2018 16:00:00 18,6 8,0 6 3 16 9 WNW 1008,8 48 0,0
13.08.2018 15:00:00 19,5 8,8 7 4 16 9 WNW 1008,8 38 0,0
13.08.2018 14:00:00 19,3 9,5 8 4 17 9 NW 1009,0 31 0,0
13.08.2018 13:00:00 19,1 8,4 8 4 18 10 WNW 1008,9 31 0,0
13.08.2018 12:00:00 18,4 8,9 8 4 19 10 W 1008,8 39 0,0
13.08.2018 11:00:00 16,8 9,7 8 5 19 11 W 1009,0 39 0,0
13.08.2018 10:00:00 15,7 9,6 8 5 19 10 WNW 1008,8 34 0,0
13.08.2018 09:00:00 14,7 10,3 8 4 18 10 WNW 1008,6 40 0,0
13.08.2018 08:00:00 13,5 10,1 9 5 17 9 WNW 1008,3 48 0,0
13.08.2018 07:00:00 12,5 9,9 9 5 17 9 W 1008,2 46 0,0
13.08.2018 06:00:00 11,2 9,8 8 5 19 11 W 1007,9 50 0,0
13.08.2018 05:00:00 11,2 10,4 8 5 19 10 W 1007,7 50 0,0
13.08.2018 04:00:00 11,0 10,5 5 3 19 11 W 1007,5 48 0,0
13.08.2018 03:00:00 11,5 10,9 5 3 18 10 W 1007,1 50 0,0
13.08.2018 02:00:00 11,5 10,6 6 4 17 9 W 1007,1 50 0,0
13.08.2018 01:00:00 12,3 11,4 10 5 25 13 W 1006,9 50 0,0
13.08.2018 00:00:00 12,4 11,6 7 4 25 13 W 1006,8 49 0,0
12.08.2018 23:00:00 12,5 12,0 4 2 27 15 W 1006,6 38 0,1
12.08.2018 22:00:00 13,0 12,1 11 6 26 14 W 1006,4 30 0,0
12.08.2018 21:00:00 13,5 12,4 10 6 25 13 WNW 1005,8 49 0,0
12.08.2018 20:00:00 13,9 12,8 7 4 22 12 NW 1005,3 40 0,0
12.08.2018 19:00:00 14,5 13,9 9 5 20 11 NW 1004,6 34 0,3
12.08.2018 18:00:00 14,1 13,3 7 4 18 10 WNW 1004,3 25 0,1
12.08.2018 17:00:00 14,3 13,0 8 4 21 11 NW 1004,0 11 1,0
12.08.2018 16:00:00 15,2 13,9 5 3 13 7 WNW 1003,5 9 0,7
12.08.2018 15:00:00 15,2 14,1 4 2 14 8 NW 1003,4 24 1,0
12.08.2018 14:00:00 15,7 12,6 6 4 18 10 NNE 1003,3 29 0,1
12.08.2018 13:00:00 16,7 12,4 6 3 14 7 NNW 1002,8 46 0,0
12.08.2018 12:00:00 15,7 13,4 6 4 19 10 NNE 1002,9 48 0,0
12.08.2018 11:00:00 16,8 13,5 9 5 19 10 WNW 1002,6 46 0,0
12.08.2018 10:00:00 17,6 14,3 5 3 11 6 NW 1002,9 45 0,0
12.08.2018 09:00:00 16,0 13,7 5 3 11 6 NNE 1003,3 33 0,0
12.08.2018 08:00:00 14,4 13,3 5 3 10 5 N 1003,3 40 0,0
12.08.2018 07:00:00 13,5 13,3 2 1 8 5 NNW 1004,0 18 0,0
12.08.2018 06:00:00 12,8 12,2 2 1 9 5 N 1004,5 42 0,2
12.08.2018 05:00:00 13,0 12,7 5 3 9 5 NNW 1005,2 11 1,6
12.08.2018 04:00:00 12,6 12,3 0 0 6 4 N 1006,3 4,7 1,5
12.08.2018 03:00:00 13,7 11,9 3 1 16 9 S 1006,8 50 0,3
12.08.2018 02:00:00 15,6 12,4 2 1 7 4 SSW 1007,1 50 0,0
12.08.2018 01:00:00 13,9 12,3 0 0 7 4 N 1007,7 50 0,0
12.08.2018 00:00:00 14,9 12,0 3 2 7 4 SE 1008,7 49 0,0
11.08.2018 23:00:00 14,2 12,4 0 0 7 4 N 1009,3 50 0,0
11.08.2018 22:00:00 14,8 11,6 0 0 4 2 N 1010,2 49 0,0
11.08.2018 21:00:00 17,3 10,9 0 0 11 6 N 1010,7 50 0,0
11.08.2018 20:00:00 18,9 11,0 5 3 19 10 S 1011,0 50 0,0
11.08.2018 19:00:00 20,0 11,2 9 5 22 12 S 1011,1 47 0,0
11.08.2018 18:00:00 22,9 6,2 9 5 19 11 W 1011,5 44 0,0
11.08.2018 17:00:00 23,0 7,1 9 5 25 13 WSW 1011,9 50 0,0
11.08.2018 16:00:00 22,7 8,8 8 4 20 11 W 1012,5 32 0,0
11.08.2018 15:00:00 22,0 7,4 10 5 23 12 WSW 1013,2 39 0,0
11.08.2018 14:00:00 21,5 8,7 9 5 29 16 W 1013,9 36 0,0
11.08.2018 13:00:00 21,8 9,3 9 5 28 15 WSW 1014,1 36 0,0
11.08.2018 12:00:00 21,3 9,2 12 7 28 15 WSW 1014,5 34 0,0
11.08.2018 11:00:00 20,6 9,2 11 6 28 15 WSW 1014,6 32 0,0
11.08.2018 10:00:00 18,9 9,4 12 6 29 15 WSW 1014,3 40 0,0
11.08.2018 09:00:00 18,3 9,4 11 6 30 16 WSW 1014,4 40 0,0
11.08.2018 08:00:00 17,1 9,8 11 6 28 15 WSW 1014,3 35 0,0
11.08.2018 07:00:00 15,9 10,2 7 4 17 9 SW 1014,0 47 0,0
11.08.2018 06:00:00 14,8 9,4 4 2 15 8 WSW 1013,4 41 0,0
11.08.2018 05:00:00 14,5 8,9 7 4 24 13 SW 1013,0 49 0,0
11.08.2018 04:00:00 15,0 8,9 8 4 22 12 SW 1012,8 45 0,0
11.08.2018 03:00:00 15,7 8,7 9 5 27 15 SW 1012,6 50 0,0
11.08.2018 02:00:00 16,2 8,2 9 5 26 14 WSW 1012,5 50 0,0
11.08.2018 01:00:00 16,6 8,3 10 6 33 18 SW 1012,4 50 0,0
11.08.2018 00:00:00 17,5 8,1 12 7 30 16 WSW 1012,4 50 0,0
10.08.2018 23:00:00 18,3 9,1 11 6 28 15 WSW 1011,9 49 0,0
10.08.2018 22:00:00 19,6 9,5 10 6 37 20 WSW 1011,1 50 0,0
10.08.2018 21:00:00 20,9 9,5 13 7 44 24 WSW 1010,3 50 0,0
10.08.2018 20:00:00 22,7 11,1 13 7 42 23 WSW 1009,2 48 0,0
10.08.2018 19:00:00 24,2 11,8 12 7 34 19 WSW 1008,3 47 0,0
10.08.2018 18:00:00 24,8 12,4 16 9 36 19 WSW 1008,0 45 0,0
10.08.2018 17:00:00 25,7 17,6 9 5 32 17 SSW 1007,4 38 0,0
10.08.2018 16:00:00 25,6 18,5 11 6 35 19 S 1007,1 37 0,0
10.08.2018 15:00:00 27,2 19,5 13 7 40 22 S 1006,9 21 0,0
10.08.2018 14:00:00 27,7 19,8 12 6 34 19 S 1006,9 20 0,0
10.08.2018 13:00:00 27,0 20,1 14 7 42 23 S 1007,3 24 0,0
10.08.2018 12:00:00 27,8 19,8 14 8 32 18 SSE 1007,1 25 0,0
10.08.2018 11:00:00 25,6 20,8 11 6 29 15 SSE 1007,7 23 0,0
10.08.2018 10:00:00 23,4 20,3 11 6 24 13 SE 1007,4 25 0,0
10.08.2018 09:00:00 23,5 20,6 9 5 29 16 SSE 1008,4 30 0,0
10.08.2018 08:00:00 22,9 20,4 11 6 21 11 ESE 1008,5 30 0,0
10.08.2018 07:00:00 22,2 20,7 9 5 17 9 ESE 1009,6 14 0,0
10.08.2018 06:00:00 20,1 19,9 7 4 13 7 ESE 1010,6 6 0,0
10.08.2018 05:00:00 18,3 18,3 5 3 9 5 ESE 1011,5 6 0,0
10.08.2018 04:00:00 18,3 18,0 5 3 11 6 E 1012,1 9 0,0
10.08.2018 03:00:00 17,0 17,0 4 2 9 5 ESE 1012,5 2,7 0,0
10.08.2018 02:00:00 17,8 17,6 5 3 9 5 ESE 1013,1 7 0,0
10.08.2018 01:00:00 17,5 17,3 4 2 8 4 SE 1013,8 8 0,0
10.08.2018 00:00:00 17,9 17,4 3 2 7 4 SE 1013,8 6 0,0
09.08.2018 23:00:00 20,7 18,5 2 1 12 6 S 1013,7 20 0,0
09.08.2018 22:00:00 21,9 18,7 5 3 20 11 S 1013,7 23 0,0
09.08.2018 21:00:00 23,1 18,6 4 2 13 7 S 1013,6 27 0,0
09.08.2018 20:00:00 24,6 18,5 5 3 18 10 S 1013,2 35 0,0
09.08.2018 19:00:00 26,0 18,4 5 3 13 7 S 1012,9 32 0,0
09.08.2018 18:00:00 26,8 18,6 5 3 14 8 SSE 1012,7 24 0,0
09.08.2018 17:00:00 28,9 18,1 5 3 15 8 WSW 1012,5 32 0,0
09.08.2018 16:00:00 29,2 17,4 7 4 24 13 WSW 1012,6 30 0,0
09.08.2018 15:00:00 29,3 17,2 9 5 25 14 SW 1013,0 30 0,0
09.08.2018 14:00:00 29,2 16,0 10 5 27 14 SW 1012,8 27 0,0
09.08.2018 13:00:00 28,4 17,6 8 4 18 10 WSW 1012,8 29 0,0
09.08.2018 12:00:00 27,8 19,6 7 4 18 10 SW 1012,7 35 0,0
09.08.2018 11:00:00 26,5 19,9 5 3 13 7 W 1012,7 35 0,0
09.08.2018 10:00:00 24,5 19,6 5 3 13 7 SSW 1012,6 26 0,0
09.08.2018 09:00:00 22,4 19,2 4 2 9 5 SSE 1012,4 35 0,0
09.08.2018 08:00:00 22,2 19,0 3 1 13 7 S 1012,6 36 0,0
09.08.2018 07:00:00 22,3 18,7 5 3 16 9 S 1012,5 33 0,0
09.08.2018 06:00:00 20,2 18,1 3 2 10 6 S 1012,1 27 0,0
09.08.2018 05:00:00 20,8 17,8 5 3 14 8 SE 1011,0 45 0,0
09.08.2018 04:00:00 21,0 17,6 7 4 12 6 SE 1011,5 36 0,0
09.08.2018 03:00:00 21,0 17,4 2 1 15 8 SE 1012,0 48 0,0
09.08.2018 02:00:00 22,1 17,0 5 3 16 8 S 1012,1 43 0,0
09.08.2018 01:00:00 22,0 16,9 6 4 29 16 S 1012,0 43 0,0

tt = Température de l'air
td = dewpoint
ff = Vitesse du vent
fx = gusts
dd = Direction du vent
ppp = reduced air pressure
vv = visibility
rr = Quantités de précipitations

stations d'obs. à proximité